This is the latest recevied weather packets stored in our database for station/object HB9TJR-3. If no packets are shown the sender has not sent any weather packets the latest 10 day(s).
| Time | Temp. | Humidity | Pressure | Rain* | Wind** | Luminosity | Snow |
|---|---|---|---|---|---|---|---|
| 1787476770 | 14.44° C | 80% | 871.8 hPa | 0 mm | - | - | - |
| 1787475815 | 15° C | 80% | 871.7 hPa | 0 mm | - | - | - |
| 1787475810 | 15° C | 80% | 871.7 hPa | 0 mm | - | - | - |
| 1787474851 | 14.44° C | 79% | 871.7 hPa | 0 mm | - | - | - |
| 1787473895 | 14.44° C | 79% | 871.7 hPa | 0 mm | - | - | - |
| 1787473891 | 14.44° C | 79% | 871.7 hPa | 0 mm | - | - | - |
| 1787471971 | 13.89° C | 75% | 871.7 hPa | 0 mm | - | - | - |
| 1787471016 | 13.89° C | 79% | 871.6 hPa | 0 mm | - | - | - |
| 1787471011 | 13.89° C | 79% | 871.6 hPa | 0 mm | - | - | - |
| 1787470051 | 13.33° C | 77% | 871.6 hPa | 0 mm | - | - | - |
| 1787469090 | 13.33° C | 78% | 871.6 hPa | 0 mm | - | - | - |
| 1787468137 | 13.33° C | 78% | 871.6 hPa | 0 mm | - | - | - |
| 1787468130 | 13.33° C | 78% | 871.6 hPa | 0 mm | - | - | - |
| 1787466215 | 13.33° C | 75% | 871.5 hPa | 0 mm | - | - | - |
| 1787466210 | 13.33° C | 75% | 871.5 hPa | 0 mm | - | - | - |
| 1787465254 | 13.33° C | 73% | 871.4 hPa | 0 mm | - | - | - |
| 1787465251 | 13.33° C | 73% | 871.4 hPa | 0 mm | - | - | - |
| 1787464290 | 12.78° C | 74% | 871.3 hPa | 0 mm | - | - | - |
| 1787463331 | 12.22° C | 75% | 871.3 hPa | 0 mm | - | - | - |
| 1787461410 | 11.11° C | 77% | 871 hPa | 0 mm | - | - | - |
| 1787460451 | 11.11° C | 76% | 870.9 hPa | 0 mm | - | - | - |
| 1787459491 | 11.11° C | 80% | 870.7 hPa | 0 mm | - | - | - |
| 1787458530 | 10.56° C | 81% | 870.7 hPa | 0 mm | - | - | - |
| 1787456610 | 10.56° C | 80% | 870.4 hPa | 0 mm | - | - | - |
| 1787455653 | 10.56° C | 79% | 870.4 hPa | 0 mm | - | - | - |
* Rain latest hour (hover to see other rain measurements)
** Current wind speed in m/s (hover to see current wind gust speed)